Showing default

LEMUR 2 KREMPEL-BRO1, 63357

Orbit data source: Space-Track

LEMUR 2 KREMPEL-BRO1, 63357 is a payload satellite owned by OroraTech (US) in SSO that was launched on Wed, 26 Mar 2025 UTC via an ELECTRON launch vehicle from the Rocket Lab Launch Complex (RLLC). Payload-class satellites include a variety of spacecraft equipped with specific instruments for various scientific and technological missions. These include communications satellites like Starlink; space stations such as the ISS; scientific satellites like the Hubble; Earth observation satellites from companies like Planet Labs, Umbra, and HawkEye 360; GPS; miniature CubeSats for education and research; and military/defense satellites.

Loading next visibility...
Identifier
63357, 2025-061G
Orbit
SSO
Country
Flag of USUS
Related business
Manufacturer
Spire/Glasgow
Mission
Operational Commercial Imaging
Bus & Motor
CUBESAT 6U, Unknown motor
Mass
~15 kg wet, ~15 kg dry
Launch date (UTC)
2025-03-26 (6 months ago)
Launch vehicle
ELECTRON
Launch site
Rocket Lab Launch Complex (RLLC)
Object type
Payload
Rocket body
Debris
Shape & HBR
Box + 2 Pan, 0.2 m
Radar Cross Section
0.065 m², Medium (>0.1 m² and < 1m²)

Expand to show TLE details & history
Last TLE update: 14 hours ago

TLE from 14 hours ago
0 LEMUR 2 KREMPEL-BRO1
1 63357U 25061G   25260.88357850  .00005689  00000-0  33880-3 0  9990
2 63357  97.5289 234.5128 0021822 105.7268 254.6372 15.11398796 26451
Epoch: 2025-09-17T21:12Z
TLE epoch observation values (Epoch: 2025-09-17T21:12:21.182Z)
Latitude
0.00006°
Longitude
-80.6286°
Altitude
539.035 km
Speed
7.591 km/s
True Right ascension
15h 38m 03s
True Declination
0° 00' 00"
Sunlit
Object was in daylight at epoch
Visualization orbit readout
Latitude
Unknown
Longitude
Unknown
Altitude
Unknown
Speed
Unknown
Apparent Right ascension
Unknown
Apparent Declination
Unknown
Sunlit
N/A
Visualization observer readout
Local Sidereal Time
03:59:15
Azimuth
Unknown
Elevation
Unknown
Doppler factor
Unknown
Orbital elements
Apogee altitude
543.988 km
Perigee altitude
513.843 km
Semi-major axis
6,907.053 km
Eccentricity
0.00218
Inclination
97.5289°
RAAN
234.5128°
Arg. of periapsis
105.7268°
True anomaly
254.39625°
Mean anomaly
254.6372°
Eccentric anomaly
254.51671°
Mean motion
3.78098 °/min
Orbital period
95.21 mins
BSTAR
0.0003388
Loading maneuver chart data...
Computing Atmospheric mass density...
Loading historical data...
Loading historical data...
Loading historical data...
Loading historical data...
Loading historical data...
Loading historical data...
Loading historical data...

Documentation

Showing up to 5 results
|